Location: Marcé
(47.5801°N, 0.3280°W)
Time: 06:59:30
(UTC+01:00)

Envisat - Pass Details

Date: 24 October 2021
Orbit: 764 x 766 km, 98.2° (Epoch: 04 December)

Event Time Altitude Azimuth Distance (km) Brightness Sun altitude
Rises 07:56:27 0° 8° (N) 3,245 6.2 -6.9°
Reaches altitude 10° 07:58:51 10° 2° (N) 2,314 5.4 -6.5°
Maximum altitude 08:03:39 43° 292° (WNW) 1,071 3.4 -5.7°
Drops below altitude 10° 08:08:24 10° 222° (SW) 2,298 5.2 -4.9°
Sets 08:10:47 0° 216° (SW) 3,219 6.0 -4.5°
